EWG455 LFLL-EDDC

Flight info

Callsign EWG455
Flight time N/A
Altitude 38000
Route BELUS Z87 SOPLO DCT DITON T163 KOVAN/N0442F390 DCT OKIBA DCT BARSU DCT TABAT DCT OSKAN OSKAN4B
Aircraft A320/M-SDE3FGHIRWY/LB1

Departure

Time 2026-05-05 21:13
Airport Lyon Saint-Exupéry Airport (LFLL)

Arrival

Time N/A
Airport Dresden Airport (EDDC)
Time Latitude Longitude Altitude Speed Heading
2026-05-05 20:31 45.72288 5.08146 797 ft 0 kts 250°
2026-05-05 20:59 45.72291 5.08162 797 ft 4 kts 250°
2026-05-05 21:00 45.72301 5.08198 797 ft 4 kts 249°
2026-05-05 21:00 45.72308 5.08227 797 ft 4 kts 268°
2026-05-05 21:00 45.72301 5.08259 797 ft 4 kts 318°
2026-05-05 21:00 45.72281 5.08278 797 ft 2 kts 340°
2026-05-05 21:01 45.72280 5.08278 797 ft 0 kts 340°
2026-05-05 21:05 45.72283 5.08277 797 ft 2 kts 340°
2026-05-05 21:06 45.72297 5.08272 797 ft 1 kts 355°
2026-05-05 21:06 45.72306 5.08278 797 ft 2 kts 26°
2026-05-05 21:06 45.72329 5.08338 797 ft 10 kts 79°
2026-05-05 21:06 45.72342 5.08406 798 ft 4 kts 51°
2026-05-05 21:07 45.72368 5.08415 798 ft 5 kts 353°
2026-05-05 21:07 45.72422 5.08403 797 ft 11 kts 357°
2026-05-05 21:07 45.72514 5.08394 796 ft 16 kts 355°
2026-05-05 21:07 45.72641 5.08379 792 ft 21 kts 355°
2026-05-05 21:08 45.72792 5.08359 791 ft 22 kts 355°
2026-05-05 21:08 45.72945 5.08339 789 ft 22 kts 354°
2026-05-05 21:08 45.73098 5.08320 786 ft 22 kts 354°
2026-05-05 21:08 45.73254 5.08302 784 ft 23 kts 355°
2026-05-05 21:09 45.73415 5.08284 780 ft 24 kts 355°
2026-05-05 21:09 45.73580 5.08263 780 ft 24 kts 354°
2026-05-05 21:09 45.73664 5.08260 778 ft 8 kts 10°
2026-05-05 21:10 45.73711 5.08292 777 ft 7 kts 48°
2026-05-05 21:10 45.73729 5.08340 777 ft 4 kts 70°
2026-05-05 21:10 45.73723 5.08431 777 ft 15 kts 104°
2026-05-05 21:11 45.73697 5.08577 776 ft 16 kts 104°
2026-05-05 21:11 45.73659 5.08714 778 ft 11 kts 141°
2026-05-05 21:11 45.73628 5.08726 779 ft 0 kts 181°
2026-05-05 21:12 45.73540 5.08729 781 ft 44 kts 173°
2026-05-05 21:12 45.73225 5.08771 789 ft 90 kts 175°
2026-05-05 21:12 45.72383 5.08874 801 ft 145 kts 175°
2026-05-05 21:12 45.71315 5.09032 1379 ft 151 kts 172°
2026-05-05 21:13 45.70297 5.09212 2119 ft 155 kts 175°
2026-05-05 21:13 45.69144 5.09341 2547 ft 177 kts 176°
2026-05-05 21:13 45.67837 5.09475 2976 ft 199 kts 178°
2026-05-05 21:13 45.66399 5.09627 3372 ft 213 kts 178°
2026-05-05 21:14 45.64852 5.09799 3703 ft 229 kts 178°
2026-05-05 21:14 45.63242 5.09985 4291 ft 234 kts 177°
2026-05-05 21:14 45.61599 5.10324 4687 ft 249 kts 166°
2026-05-05 21:14 45.59993 5.11371 5071 ft 263 kts 148°
2026-05-05 21:15 45.58616 5.13139 5624 ft 270 kts 131°
2026-05-05 21:15 45.57659 5.15473 6188 ft 276 kts 113°
2026-05-05 21:15 45.57255 5.18176 6741 ft 281 kts 94°
2026-05-05 21:15 45.57484 5.20960 7266 ft 286 kts 75°
2026-05-05 21:16 45.58332 5.23515 7765 ft 292 kts 56°
2026-05-05 21:16 45.59672 5.25716 8275 ft 294 kts 50°
2026-05-05 21:16 45.60871 5.28089 8809 ft 295 kts 61°
2026-05-05 21:16 45.61717 5.30759 9314 ft 296 kts 74°
2026-05-05 21:17 45.62296 5.33586 9836 ft 297 kts 76°
2026-05-05 21:17 45.62870 5.36402 10309 ft 299 kts 76°
2026-05-05 21:17 45.63457 5.39267 10748 ft 301 kts 75°
2026-05-05 21:17 45.64046 5.42146 11184 ft 303 kts 76°
2026-05-05 21:18 45.64637 5.45050 11619 ft 305 kts 76°
2026-05-05 21:18 45.65234 5.47999 11881 ft 309 kts 76°
2026-05-05 21:18 45.65832 5.50964 11925 ft 311 kts 76°
2026-05-05 21:18 45.66432 5.53939 11925 ft 311 kts 76°
2026-05-05 21:19 45.67024 5.56876 11925 ft 311 kts 76°